When you browse on this site, cookies collect data to enhance your experience and personalize the content and advertising you see.
Visit our Privacy Policy to learn more. By continuing to use the site, you agree to this use of cookies and data.
  • In Hungary
  • List of Countries
  • For 7 days
  • Water Temperature
  • Satellite Maps
  • Weather Map
  • News
  • Weather Widgets
  • user-avatar
    Login

    Hourly Weather Golaya Pristan

    Today, 19 November, Monday

    Time Temperature Precipitation Wind Pressure Humidity
    00:00 -1°C° 0 mm 4 mps 767 mmHg 90%
    01:00 -1°C° 0 mm 4 mps 767 mmHg 90%
    02:00 -1°C° 0 mm 4 mps 766 mmHg 90%
    03:00 -1°C° 0 mm 5 mps 766 mmHg 88%
    04:00 0°C° 0 mm 5 mps 766 mmHg 86%
    05:00 -1°C° 0 mm 6 mps 765 mmHg 84%
    06:00 -1°C° 0 mm 6 mps 765 mmHg 81%
    07:00 -1°C° 0 mm 6 mps 765 mmHg 79%
    08:00 -1°C° 0 mm 7 mps 765 mmHg 76%
    09:00 0°C° 0.4 mm 7 mps 765 mmHg 77%
    10:00 0°C° 0.4 mm 7 mps 765 mmHg 77%
    11:00 +1°C° 0.4 mm 8 mps 764 mmHg 78%
    12:00 +1°C° 1.1 mm 8 mps 764 mmHg 80%
    13:00 +1°C° 1.1 mm 9 mps 763 mmHg 81%
    14:00 +1°C° 1.1 mm 9 mps 763 mmHg 83%
    15:00 +1°C° 0.8 mm 10 mps 762 mmHg 84%
    16:00 +1°C° 0.8 mm 10 mps 761 mmHg 85%
    17:00 +1°C° 0.8 mm 10 mps 761 mmHg 87%
    18:00 +2°C° 0.5 mm 10 mps 760 mmHg 87%
    19:00 +2°C° 0.5 mm 10 mps 760 mmHg 88%
    20:00 +2°C° 0.5 mm 10 mps 760 mmHg 89%
    21:00 +3°C° 0.5 mm 9 mps 759 mmHg 90%
    22:00 +4°C° 0.5 mm 8 mps 759 mmHg 91%
    23:00 +5°C° 0.5 mm 7 mps 759 mmHg 92%

    Tomorrow, 20 November, Tuesday

    Time Temperature Precipitation Wind Pressure Humidity
    00:00 +5°C° 0.1 mm 6 mps 759 mmHg 93%
    01:00 +6°C° 0.1 mm 5 mps 759 mmHg 94%
    02:00 +6°C° 0.1 mm 5 mps 759 mmHg 94%
    03:00 +6°C° 0.2 mm 5 mps 760 mmHg 94%
    04:00 +4°C° 0.2 mm 6 mps 760 mmHg 94%
    05:00 +4°C° 0.2 mm 7 mps 760 mmHg 93%
    06:00 +4°C° 0 mm 7 mps 761 mmHg 91%
    07:00 +3°C° 0 mm 7 mps 762 mmHg 88%
    08:00 +1°C° 0 mm 8 mps 762 mmHg 86%
    09:00 +2°C° 0 mm 7 mps 763 mmHg 84%
    10:00 +2°C° 0 mm 7 mps 763 mmHg 82%
    11:00 +2°C° 0 mm 6 mps 764 mmHg 79%
    12:00 +2°C° 0 mm 6 mps 764 mmHg 78%
    13:00 +3°C° 0 mm 5 mps 764 mmHg 76%
    14:00 +3°C° 0 mm 5 mps 765 mmHg 74%
    15:00 +2°C° 0 mm 5 mps 765 mmHg 76%
    16:00 +2°C° 0 mm 5 mps 765 mmHg 78%
    17:00 +2°C° 0 mm 5 mps 766 mmHg 80%
    18:00 +1°C° 0 mm 5 mps 766 mmHg 81%
    19:00 +1°C° 0 mm 5 mps 766 mmHg 81%
    20:00 +1°C° 0 mm 4 mps 766 mmHg 82%
    21:00 +1°C° 0 mm 4 mps 766 mmHg 82%
    22:00 0°C° 0 mm 4 mps 766 mmHg 83%
    23:00 0°C° 0 mm 4 mps 766 mmHg 83%

    Day after tomorrow, 21 November, Wednesday

    Time Temperature Precipitation Wind Pressure Humidity
    00:00 0°C° 0 mm 4 mps 766 mmHg 83%
    01:00 0°C° 0 mm 4 mps 766 mmHg 83%
    02:00 0°C° 0 mm 4 mps 766 mmHg 83%
    03:00 -1°C° 0 mm 4 mps 766 mmHg 84%
    04:00 -1°C° 0 mm 5 mps 766 mmHg 85%
    05:00 -1°C° 0 mm 5 mps 765 mmHg 85%
    06:00 -1°C° 0 mm 5 mps 765 mmHg 85%
    07:00 -3°C° 0 mm 6 mps 766 mmHg 84%
    08:00 -3°C° 0 mm 6 mps 766 mmHg 83%
    09:00 -2°C° 0 mm 6 mps 766 mmHg 79%
    10:00 -1°C° 0 mm 6 mps 766 mmHg 74%
    11:00 +2°C° 0 mm 6 mps 765 mmHg 69%
    12:00 +2°C° 0 mm 6 mps 765 mmHg 67%
    13:00 +3°C° 0 mm 6 mps 765 mmHg 66%
    14:00 +3°C° 0 mm 6 mps 765 mmHg 64%
    15:00 +2°C° 0 mm 6 mps 765 mmHg 67%
    16:00 +1°C° 0 mm 6 mps 765 mmHg 70%
    17:00 +1°C° 0 mm 6 mps 765 mmHg 73%
    18:00 -1°C° 0 mm 7 mps 765 mmHg 75%
    19:00 -2°C° 0 mm 7 mps 765 mmHg 77%
    20:00 -2°C° 0 mm 7 mps 765 mmHg 78%
    21:00 -3°C° 0 mm 6 mps 766 mmHg 79%
    22:00 -3°C° 0 mm 6 mps 766 mmHg 80%
    23:00 -4°C° 0 mm 6 mps 766 mmHg 81%

    22 November, Thursday

    Time Temperature Precipitation Wind Pressure Humidity
    00:00 -4°C° 0 mm 6 mps 766 mmHg 82%
    01:00 -4°C° 0 mm 6 mps 766 mmHg 82%
    02:00 -4°C° 0 mm 6 mps 766 mmHg 82%
    03:00 -5°C° 0 mm 6 mps 767 mmHg 83%
    04:00 -5°C° 0 mm 6 mps 767 mmHg 83%
    05:00 -5°C° 0 mm 6 mps 767 mmHg 83%
    06:00 -5°C° 0 mm 6 mps 767 mmHg 81%
    07:00 -5°C° 0 mm 6 mps 767 mmHg 78%
    08:00 -5°C° 0 mm 6 mps 768 mmHg 76%
    09:00 -3°C° 0 mm 6 mps 768 mmHg 70%
    10:00 -2°C° 0 mm 6 mps 768 mmHg 64%
    11:00 -1°C° 0 mm 6 mps 768 mmHg 58%
    12:00 -1°C° 0 mm 6 mps 768 mmHg 57%
    13:00 +1°C° 0 mm 6 mps 768 mmHg 57%
    14:00 +1°C° 0 mm 6 mps 768 mmHg 57%
    15:00 -1°C° 0 mm 6 mps 768 mmHg 63%
    16:00 -2°C° 0 mm 6 mps 768 mmHg 70%
    17:00 -3°C° 0 mm 6 mps 768 mmHg 76%
    18:00 -4°C° 0 mm 5 mps 769 mmHg 79%
    19:00 -4°C° 0 mm 5 mps 769 mmHg 83%
    20:00 -5°C° 0 mm 5 mps 769 mmHg 86%
    21:00 -5°C° 0 mm 5 mps 770 mmHg 85%
    22:00 -5°C° 0 mm 5 mps 770 mmHg 85%
    23:00 -5°C° 0 mm 4 mps 770 mmHg 84%

    23 November, Friday

    Time Temperature Precipitation Wind Pressure Humidity
    00:00 -5°C° 0 mm 4 mps 770 mmHg 84%
    01:00 -5°C° 0 mm 4 mps 770 mmHg 83%
    02:00 -5°C° 0 mm 4 mps 770 mmHg 82%
    03:00 -5°C° 0 mm 4 mps 771 mmHg 81%
    04:00 -5°C° 0 mm 4 mps 771 mmHg 81%
    05:00 -5°C° 0 mm 4 mps 771 mmHg 81%
    06:00 -5°C° 0 mm 4 mps 771 mmHg 80%
    07:00 -5°C° 0 mm 4 mps 772 mmHg 79%
    08:00 -5°C° 0 mm 4 mps 772 mmHg 78%
    09:00 -4°C° 0 mm 4 mps 772 mmHg 72%
    10:00 -2°C° 0 mm 4 mps 773 mmHg 67%
    11:00 -1°C° 0 mm 4 mps 773 mmHg 62%
    12:00 0°C° 0 mm 4 mps 773 mmHg 61%
    13:00 0°C° 0 mm 4 mps 773 mmHg 61%
    14:00 0°C° 0 mm 4 mps 773 mmHg 60%
    15:00 -1°C° 0 mm 4 mps 773 mmHg 67%
    16:00 -2°C° 0 mm 4 mps 773 mmHg 74%
    17:00 -4°C° 0 mm 4 mps 773 mmHg 81%
    18:00 -4°C° 0 mm 4 mps 774 mmHg 84%
    19:00 -4°C° 0 mm 4 mps 774 mmHg 86%
    20:00 -4°C° 0 mm 4 mps 774 mmHg 88%
    21:00 -5°C° 0 mm 3 mps 774 mmHg 89%
    22:00 -5°C° 0 mm 3 mps 774 mmHg 89%
    23:00 -5°C° 0 mm 3 mps 774 mmHg 90%

    24 November, Saturday

    Time Temperature Precipitation Wind Pressure Humidity
    00:00 -5°C° 0 mm 3 mps 774 mmHg 90%
    01:00 -5°C° 0 mm 3 mps 774 mmHg 89%
    02:00 -5°C° 0 mm 3 mps 773 mmHg 89%
    03:00 -5°C° 0 mm 3 mps 773 mmHg 89%
    04:00 -4°C° 0 mm 2 mps 773 mmHg 89%
    05:00 -4°C° 0 mm 2 mps 773 mmHg 89%
    06:00 -4°C° 0 mm 2 mps 773 mmHg 88%
    07:00 -3°C° 0 mm 2 mps 773 mmHg 88%
    08:00 -3°C° 0 mm 2 mps 773 mmHg 87%
    09:00 -2°C° 0 mm 2 mps 773 mmHg 81%
    10:00 +1°C° 0 mm 2 mps 773 mmHg 74%
    11:00 +2°C° 0 mm 2 mps 773 mmHg 68%
    12:00 +3°C° 0 mm 2 mps 772 mmHg 66%
    13:00 +3°C° 0 mm 2 mps 772 mmHg 64%
    14:00 +5°C° 0 mm 1 mps 771 mmHg 62%
    15:00 +4°C° 0 mm 1 mps 771 mmHg 67%
    16:00 +2°C° 0 mm 1 mps 771 mmHg 73%
    17:00 +1°C° 0 mm 1 mps 771 mmHg 78%
    18:00 +1°C° 0 mm 1 mps 771 mmHg 79%
    19:00 +1°C° 0 mm 1 mps 771 mmHg 79%
    20:00 0°C° 0 mm 1 mps 770 mmHg 80%
    21:00 0°C° 0 mm 1 mps 770 mmHg 80%
    22:00 0°C° 0 mm 1 mps 770 mmHg 80%
    23:00 0°C° 0 mm 1 mps 770 mmHg 80%
    Show more